Regional Weather Roundup
Issued by NWS

Home | Current Version | Previous Version | Graphics & Text | Print | Product List | Glossary On
Versions: 1 2 3 4 5 6 7 8 9 10 11 12 13 14 15 16 17 18 19 20 21 22 23 24 25 26 27 28 29 30 31 32 33 34 35 36 37 38 39 40 41 42 43 44 45 46 47 48 49 50
000
ASUS43 KIND 231009
RWRIN

WEATHER ROUNDUP FOR INDIANA
NATIONAL WEATHER SERVICE INDIANAPOLIS IN
500 AM EST FRI FEB 23 2018

NOTE: "FAIR" INDICATES FEW OR NO CLOUDS BELOW 12,000 FEET WITH NO
SIGNIFICANT WEATHER AND/OR OBSTRUCTIONS TO VISIBILITY.

* - STATION DOES NOT REPORT WEATHER SUCH AS PRECIPITATION OR FOG.

+ - STATION NOT QUALITY CONTROLLED BY THE NATIONAL WEATHER SERVICE.
    USE DATA WITH CAUTION...ESPECIALLY DEWPOINT AND RELATIVE
    HUMIDITY OBSERVATIONS.

INZ001>003-010>013-019-020-231100-
NORTHWEST INDIANA

CITY           SKY/WX    TMP DP  RH WIND       PRES   REMARKS
GARY /AIRPORT/ CLOUDY    40  39  97 SE8       30.15F FOG     WCI  34
LA PORTE +     DRIZZLE   36  36  99 SE12      30.17F WCI  28
MICHIGAN CITY+ DRIZZLE   36  36 100 SE7       30.15F WCI  30
MONTICELLO +   FOG       38  37  95 SE6       30.16F VSB 1/2 WCI  33
RENSSELAER +   FOG       37  36  93 E10       30.15F VSB 1/2 WCI  30
VALPARAISO     CLOUDY    39  37  92 SE10      30.15F FOG     WCI  32

$$

LMZ046-743>745-231100-
SOUTHERN LAKE MICHIGAN

STATION/POSITION TIME  TEMP    WIND        PRES    WAVE
                       AIR SEA DIR/SP/G            HT
                 (UTC) (F)     (DEG/KT/KT) (MB)    (FT)
BURNS HARBOR     0940   38     150/ 15/ 20 1021.3F
MICHIGAN CITY    0940   37     120/ 12/ 15   N/A

$$

INZ004-005-014>016-021>024-231100-
NORTH CENTRAL INDIANA

CITY           SKY/WX    TMP DP  RH WIND       PRES   REMARKS
GOSHEN         LGT RAIN  36  35  96 SE12      30.19F FOG     WCI  28
LOGANSPORT +   FOG       36  36 100 E9        30.18F VSB 1/2 WCI  29
PERU/GRISSOM   LGT RAIN  37  37 100 E9        30.16F VSB 1   WCI  31
ROCHESTER +    FOG       37  37 100 E8        30.19F VSB 1   WCI  31
SOUTH BEND     LGT RAIN  36  35  96 SE14      30.19F FOG     WCI  27
WARSAW +       DRIZZLE   36  36 100 MISG      30.20F

$$

INZ006>009-017-018-025>027-231100-
NORTHEAST INDIANA

CITY           SKY/WX    TMP DP  RH WIND       PRES   REMARKS
AUBURN +       FOG       34  34 100 E8        30.23F VSB 1   WCI  27
FORT WAYNE     DRZL/FOG  37  36  96 E14       30.23F VSB 1/2 WCI  28
HUNTINGTON +   FOG       36  35  96 E6        30.20F VSB 3/4 WCI  31
KENDALLVILLE + DRZL/FOG  34  34 100 SE9       30.21F VSB 3/4 WCI  27

$$

INZ028-029-035-036-043>045-051>053-231100-
WEST CENTRAL INDIANA

CITY           SKY/WX    TMP DP  RH WIND       PRES   REMARKS
CRAWFORDSVL +  CLOUDY    43  43 100 CALM        N/A  FOG
GREENCASTLE +  LGT RAIN  45  45 100 SE7       30.14F
LAFAYETTE      LGT RAIN  42  42 100 E7        30.14F FOG
TERRE HAUTE    CLOUDY    49  48  97 SE9       30.13F

$$

INZ030>032-037>040-046>048-054>057-064-065-231100-
CENTRAL INDIANA

CITY           SKY/WX    TMP DP  RH WIND       PRES   REMARKS
GREENWOOD *+   CLOUDY    45 -44   2 S10       30.17F
INDIANAPOLIS   CLOUDY    46  45  96 E8        30.15F FOG
-EAGLE CREEK   CLOUDY    46  44  93 SE5       30.15F FOG
KOKOMO +       LGT RAIN  39  39 100 E9        30.18F VSB 3/4 WCI  33
MARION +       FOG       38  38 100 CALM      30.20F VSB 3/4
MT COMFORT *+  CLOUDY    45  45 100 S3        30.18F
SHELBYVILLE    LGT RAIN  49  47  93 S12       30.17F
ZIONSVILLE +   FOG       44  44 100 SE9       30.16F VSB 1

$$

INZ033-034-041-042-049-050-058-059-231100-
EAST CENTRAL INDIANA

CITY           SKY/WX    TMP DP  RH WIND       PRES   REMARKS
MUNCIE         CLOUDY    47  45  93 E5        30.19F
RICHMOND +     LGT RAIN  43  43 100 SE16      30.21F

$$

INZ060-061-067>069-081>083-085>088-231100-
SOUTHWEST INDIANA

CITY           SKY/WX    TMP DP  RH WIND       PRES   REMARKS
EVANSVILLE     LGT RAIN  52  52 100 SE7       30.17F
HUNTINGBURG +  LGT RAIN  52  52 100 SE9       30.18F
WASHINGTON +   CLOUDY    51  49  93 S12       30.15S

$$

INZ062-063-066-070>080-084-089>092-231100-
SOUTH CENTRAL AND SOUTHEAST INDIANA

CITY           SKY/WX    TMP DP  RH WIND       PRES   REMARKS
BATESVILLE +   CLOUDY    46  46 100 MISG      30.22F FOG
BEDFORD +      RAIN      48  46  93 SE6       30.19F
BLOOMINGTON    LGT RAIN  48  48 100 SE10      30.15F
FRENCH LICK *+ CLOUDY    50 N/A N/A SE9       30.18F
MADISON *+     CLOUDY    46  46 100 E7        30.25F
NORTH VERNON + LGT RAIN  46  46 100 SE10      30.22F
SEYMOUR +      HVY RAIN  50  50 100 S9        30.21F

$$





USA.gov is the U.S. government's official web portal to all federal, state and local government web resources and services.